Regional Weather Roundup
Issued by NWS

Home | Current Version | Previous Version | Text Only | Print | Product List | Glossary On
Versions: 1 2 3 4 5 6 7 8 9 10 11 12 13 14 15 16 17 18 19 20 21 22 23 24 25 26 27 28 29 30 31 32 33 34 35 36 37 38 39 40 41 42 43 44 45 46 47 48 49 50
000
ASUS45 KREV 020010
RWRNV
NEVADA REGIONAL WEATHER ROUNDUP
NATIONAL WEATHER SERVICE RENO NV
500 PM PDT WED JUL 01 2015

NOTE: "FAIR" INDICATES FEW OR NO CLOUDS BELOW 12,000 FEET WITH NO
SIGNIFICANT WEATHER AND/OR OBSTRUCTIONS TO VISIBILITY.

NVZ001-003-004-020100-
WESTERN NEVADA

CITY           SKY/WX    TMP DP  RH WIND       PRES   REMARKS
RENO           PTSUNNY   96  53  23 NW21G30   30.04S
6HR MIN TEMP:  86; 6HR MAX TEMP: 100;

CARSON CITY    FAIR      90  48  24 W10G21    30.09R
MINDEN         FAIR      81  55  41 SE14      30.12R
PYRAMID LAKE     N/A     93 N/A N/A N3          N/A
FALLON         PTSUNNY  103  42  12 N8        29.97F
6HR MIN TEMP:  91; 6HR MAX TEMP: 103;

LOVELOCK       MOSUNNY  101  42  13 NW7       29.96F
6HR MIN TEMP:  91; 6HR MAX TEMP: 102;

HAWTHORNE      SUNNY    100  43  14 NW10G17   29.99F
$$

NVZ002-CAZ072-073-020100-
NORTHERN AND CENTRAL SIERRA

CITY           SKY/WX    TMP DP  RH WIND       PRES   REMARKS
S. LAKE TAHOE  PTSUNNY   80  50  34 S8        30.26S
6HR MIN TEMP:  79; 6HR MAX TEMP:  88;

TRUCKEE        PTSUNNY   82  50  32 W17       30.25R
                   6HR MAX TEMP:  86;

SQUAW VLY 8000 NOT AVBL
SUSANVILLE     SUNNY     93  48  21 SW14G22   30.04F
BLUE CANYON    PTSUNNY   79  48  33 VRB6      30.25F
MAMMOTH LAKES  FAIR      82  46  28 W10       30.29S
BRIDGEPORT     LGT RAIN  69  56  62 VRB5      30.31R
$$

NVZ030-031-036-020100-
NORTHERN NEVADA

CITY           SKY/WX    TMP DP  RH WIND       PRES   REMARKS
ELKO           MOSUNNY   96  44  16 N15       30.07F
6HR MIN TEMP:  85; 6HR MAX TEMP:  98;

WINNEMUCCA     MOSUNNY  102  39  11 W9        30.00
6HR MIN TEMP:  90; 6HR MAX TEMP: 102;

WENDOVER       MOSUNNY   97  45  16 S7        30.00F
$$

NVZ035-037-020100-
CENTRAL NEVADA

CITY           SKY/WX    TMP DP  RH WIND       PRES   REMARKS
ELY            PTSUNNY   91  41  17 N13G21    30.12F
6HR MIN TEMP:  87; 6HR MAX TEMP:  96;

EUREKA           N/A     92  39  15 N6        30.10F
6HR MIN TEMP:  89; 6HR MAX TEMP:  97;

$$

NVZ013-014-020100-
SOUTH CENTRAL NEVADA

CITY           SKY/WX    TMP DP  RH WIND       PRES   REMARKS
TONOPAH        MOSUNNY   98  42  14 W10       30.05F
6HR MIN TEMP:  86; 6HR MAX TEMP:  98;

$$

NVZ017-020-022-020100-
SOUTHERN NEVADA

CITY           SKY/WX    TMP DP  RH WIND       PRES   REMARKS
LAS VEGAS      MOSUNNY  105  55  19 SW20G25   29.76F
6HR MIN TEMP: 100; 6HR MAX TEMP: 107;

N. LAS VEGAS   SUNNY    105  56  19 SW10G20   29.77F
6HR MIN TEMP:  99; 6HR MAX TEMP: 106;

NELLIS AFB     SUNNY    105  56  19 SE7G16    29.74F
6HR MIN TEMP:  98; 6HR MAX TEMP: 106;

HENDERSON      SUNNY    102  59  24 W10G17    29.85F
6HR MIN TEMP:  98; 6HR MAX TEMP: 106;

MERCURY        SUNNY     97  52  21 SW18G28   29.92F
6HR MIN TEMP:  90; 6HR MAX TEMP: 100;

$$



USA.gov is the U.S. government's official web portal to all federal, state and local government web resources and services.